Camanche, IA

4:21 PM CDT on August 28, 2016 (GMT -0500)
Clinton Municipal

Weather History for KCWI - November, 2010

Change the Weather History Date:

Tuesday, November 23, 2010

  Actual Average Record
Temperature  
Mean Temperature 24 °F -  
Max Temperature 28 °F 44 °F 64 °F (1966)
Min Temperature 21 °F 28 °F 2 °F (1950)
Degree Days  
Heating Degree Days 40    
Moisture  
Dew Point -21 °F    
Average Humidity 12    
Maximum Humidity 13    
Minimum Humidity 12    
Precipitation  
Precipitation 0.00 in - - ()
Sea Level Pressure  
Sea Level Pressure 30.20 in    
Wind  
Wind Speed 14 mph (WNW)    
Max Wind Speed 20 mph    
Max Gust Speed 24 mph    
Visibility 10 miles    
Events      
Averages and records for this station are not official NWS values.
T = Trace of Precipitation, MM = Missing Value Source: NWS Daily Summary

Daily Weather History Graph

Daily Weather History Graph

Search for Another Location

Airport or City:

Trip Planner

Search our weather history database for the weather conditions in past years. The results will help you decide how hot, cold, wet, or windy it might be!

Date:

Astronomy

Nov. 23, 2010 Rise Set
Actual Time 7:00 AM CST 4:34 PM CST
Civil Twilight 6:29 AM CST 5:05 PM CST
Nautical Twilight 5:55 AM CST 5:39 PM CST
Astronomical Twilight 5:22 AM CST 6:12 PM CST
Moon 6:14 PM CST (11/23) 8:59 AM CST (11/23)
Length of Visible Light 10h 35m
Length of Day
9h 34m
Waning Gibbous, 96% of the Moon is Illuminated
Nov 23
Waning Gibbous
Nov 28
Last Quarter
Dec 5
New
Dec 13
First Quarter
Dec 21
Full

Hourly Weather History & Observations

Time (CST) Temp. Windchill Dew Point Humidity Pressure Visibility Wind Dir Wind Speed Gust Speed Precip Events Conditions
12:15 AM 28.4 °F 15.8 °F -18.4 °F 12% 30.02 in 10.0 mi WNW 18.4 mph 21.9 mph N/A   Partly Cloudy
12:35 AM 28.4 °F 17.5 °F -18.4 °F 12% 30.03 in 10.0 mi WNW 13.8 mph 19.6 mph N/A   Mostly Cloudy
12:55 AM 26.6 °F 13.8 °F -18.4 °F 13% 30.04 in 10.0 mi NW 17.3 mph - N/A   Mostly Cloudy
1:15 AM 26.6 °F 14.3 °F -20.2 °F 12% 30.04 in 10.0 mi WNW 16.1 mph - N/A   Clear
1:35 AM 26.6 °F 13.1 °F -20.2 °F 12% 30.06 in 10.0 mi WNW 19.6 mph - N/A   Partly Cloudy
1:55 AM 26.6 °F 14.7 °F -20.2 °F 12% 30.07 in 10.0 mi WNW 15.0 mph - N/A   Partly Cloudy
2:15 AM 26.6 °F 16.2 °F -20.2 °F 12% 30.07 in 10.0 mi WNW 11.5 mph - N/A   Clear
2:35 AM 24.8 °F 14.0 °F -20.2 °F 13% 30.07 in 10.0 mi West 11.5 mph - N/A   Clear
2:55 AM 24.8 °F 13.4 °F -20.2 °F 13% 30.08 in 10.0 mi West 12.7 mph - N/A   Clear
3:15 AM 24.8 °F 13.4 °F -20.2 °F 13% 30.08 in 10.0 mi West 12.7 mph - N/A   Partly Cloudy
3:35 AM 26.6 °F 18.2 °F -20.2 °F 12% 30.08 in 10.0 mi West 8.1 mph - N/A   Mostly Cloudy
3:55 AM 26.6 °F 16.8 °F -20.2 °F 12% 30.08 in 10.0 mi WNW 10.4 mph - N/A   Overcast
4:15 AM 26.6 °F 15.7 °F -20.2 °F 12% 30.08 in 10.0 mi WNW 12.7 mph - N/A   Overcast
4:35 AM 26.6 °F 14.3 °F -20.2 °F 12% 30.09 in 10.0 mi NW 16.1 mph - N/A   Overcast
4:55 AM 26.6 °F 14.3 °F -20.2 °F 12% 30.10 in 10.0 mi NW 16.1 mph 20.7 mph N/A   Mostly Cloudy
5:15 AM 26.6 °F 14.7 °F -20.2 °F 12% 30.11 in 10.0 mi NW 15.0 mph 21.9 mph N/A   Partly Cloudy
5:35 AM 24.8 °F 11.1 °F -20.2 °F 13% 30.12 in 10.0 mi NW 18.4 mph 23.0 mph N/A   Clear
5:55 AM 24.8 °F 11.9 °F -20.2 °F 13% 30.13 in 10.0 mi WNW 16.1 mph 21.9 mph N/A   Clear
6:15 AM 24.8 °F 11.1 °F -22.0 °F 12% 30.14 in 10.0 mi WNW 18.4 mph - N/A   Clear
6:35 AM 23.0 °F 8.3 °F -22.0 °F 13% 30.15 in 10.0 mi WNW 19.6 mph 24.2 mph N/A   Clear
6:55 AM 21.2 °F 7.3 °F -23.8 °F 13% 30.17 in 10.0 mi WNW 16.1 mph - N/A   Clear
7:15 AM 21.2 °F 6.8 °F -23.8 °F 13% 30.18 in 10.0 mi WNW 17.3 mph - N/A   Clear
7:35 AM 21.2 °F 7.8 °F -23.8 °F 13% 30.20 in 10.0 mi WNW 15.0 mph 19.6 mph N/A   Clear
7:55 AM 21.2 °F 8.3 °F -23.8 °F 13% 30.21 in 10.0 mi WNW 13.8 mph - N/A   Clear
8:15 AM 21.2 °F 7.3 °F -23.8 °F 13% 30.22 in 10.0 mi WNW 16.1 mph 19.6 mph N/A   Clear
8:35 AM - - - N/A% 30.22 in 10.0 mi West 16.1 mph - N/A   Clear
8:55 AM - - - N/A% 30.22 in 10.0 mi WNW 17.3 mph - N/A   Clear
9:15 AM - - - N/A% 30.24 in 10.0 mi WNW 17.3 mph - N/A   Clear
9:35 AM - - - N/A% 30.25 in 10.0 mi WNW 15.0 mph 18.4 mph N/A   Clear
9:55 AM - - - N/A% 30.26 in 10.0 mi WNW 16.1 mph 20.7 mph N/A   Clear
10:15 AM - - - N/A% 30.26 in 10.0 mi West 15.0 mph - N/A   Clear
10:35 AM - - - N/A% 30.27 in 10.0 mi West 10.4 mph - N/A   Clear
10:55 AM - - - N/A% 30.28 in 10.0 mi West 12.7 mph - N/A   Clear
11:15 AM - - - N/A% 30.27 in 10.0 mi West 12.7 mph - N/A   Clear
11:35 AM - - - N/A% 30.27 in 10.0 mi West 16.1 mph 21.9 mph N/A   Clear
11:55 AM - - - N/A% 30.27 in 10.0 mi West 13.8 mph - N/A   Clear
12:15 PM - - - N/A% 30.28 in 10.0 mi West 10.4 mph 17.3 mph N/A   Clear
12:35 PM - - - N/A% 30.28 in 10.0 mi West 11.5 mph - N/A   Clear
12:55 PM - - - N/A% 30.28 in 10.0 mi West 10.4 mph 19.6 mph N/A   Clear
1:15 PM - - - N/A% 30.28 in 10.0 mi WNW 15.0 mph - N/A   Clear
1:35 PM - - - N/A% 30.28 in 10.0 mi West 12.7 mph - N/A   Clear
1:55 PM - - - N/A% 30.29 in 10.0 mi WNW 12.7 mph - N/A   Clear
2:15 PM - - - N/A% 30.29 in 10.0 mi West 9.2 mph - N/A   Clear
2:35 PM - - - N/A% 30.29 in 10.0 mi West 11.5 mph - N/A   Clear
2:55 PM - - - N/A% 30.30 in 10.0 mi West 12.7 mph - N/A   Clear
3:15 PM - - - N/A% 30.30 in 10.0 mi WNW 10.4 mph - N/A   Clear
3:35 PM - - - N/A% 30.30 in 10.0 mi WNW 10.4 mph - N/A   Clear
3:55 PM - - - N/A% 30.31 in 10.0 mi WNW 10.4 mph - N/A   Clear
4:15 PM - - - N/A% 30.30 in 10.0 mi WNW 10.4 mph - N/A   Clear
4:35 PM - - - N/A% 30.31 in 10.0 mi WNW 6.9 mph - N/A   Clear
4:55 PM - - - N/A% 30.31 in 10.0 mi WNW 5.8 mph - N/A   Clear
5:15 PM - - - N/A% 30.31 in 10.0 mi WNW 5.8 mph - N/A   Clear
5:35 PM - - - N/A% 30.31 in 10.0 mi West 3.5 mph - N/A   Clear
5:55 PM - - - N/A% 30.31 in 10.0 mi Calm Calm - N/A   Clear
6:15 PM - - - N/A% 30.31 in 10.0 mi Calm Calm - N/A   Clear
6:35 PM - - - N/A% 30.31 in 10.0 mi Calm Calm - N/A   Clear
6:55 PM - - - N/A% 30.31 in 10.0 mi Calm Calm - N/A   Clear
7:15 PM - - - N/A% 30.31 in 10.0 mi Calm Calm - N/A   Clear
7:35 PM - - - N/A% 30.31 in 10.0 mi Calm Calm - N/A   Clear
7:55 PM - - - N/A% 30.31 in 10.0 mi NE 3.5 mph - N/A   Clear
8:15 PM - - - N/A% 30.31 in 10.0 mi East 3.5 mph - N/A   Clear
8:35 PM - - - N/A% 30.30 in 10.0 mi ENE 5.8 mph - N/A   Clear
8:55 PM - - - N/A% 30.28 in 10.0 mi ENE 6.9 mph - N/A   Clear
9:15 PM - - - N/A% 30.29 in 10.0 mi East 4.6 mph - N/A   Clear
9:35 PM - - - N/A% 30.29 in 10.0 mi ENE 3.5 mph - N/A   Clear
9:55 PM - - - N/A% 30.29 in 10.0 mi ENE 5.8 mph - N/A   Clear
10:15 PM - - - N/A% 30.28 in 10.0 mi ENE 6.9 mph - N/A   Clear
10:35 PM - - - N/A% 30.27 in 10.0 mi ENE 9.2 mph - N/A   Clear
10:55 PM - - - N/A% 30.28 in 10.0 mi East 4.6 mph - N/A   Clear
11:15 PM - - - N/A% 30.28 in 10.0 mi East 5.8 mph - N/A   Clear
11:35 PM - - - N/A% 30.28 in 10.0 mi East 8.1 mph - N/A   Clear
11:55 PM - - - N/A% 30.28 in 10.0 mi East 9.2 mph - N/A   Clear